Vertical_Velocity
2 -0 3 1 1 1 0 2 1 -1 0 5 2 -1 1 -1 0 1 2 0 1 0 -1 1 0 -1 -2 -1 -1 -0 -1 -1 0 0 -1 -2 -2 -1 -1 1 1 -0 -2
-3 -1 1 -1 3 1 -0 1 2 2 1 4 4 2 -3 -1 0 0 2 1 2 0 2 0 0 -1 -1 -1 0 0 0 0 -1 1 -0 1 1 -1 1 -1 1 1 1
5 5 0 6 3 -1 3 0 0 2 -0 -1 1 0 1 -2 -1 -3 3 0 0 0 2 1 2 -0 -1 0 -3 0 -2 -2 -1 -0 0 -0 0 -3 -0 0 1 2 1
13 18 4 -3 2 2 2 2 -0 0 -0 -1 -1 -1 1 3 2 1 0 -1 0 -0 -1 -1 0 -1 -1 0 0 -2 -1 -1 -0 -1 -0 -1 -1 -2 -0 1 1 -0 2
-3 5 4 5 3 -1 1 4 -1 0 1 0 2 1 1 3 3 -1 1 -0 -0 0 -0 -1 -0 -2 -1 -1 -1 -2 -1 -1 -1 -1 -1 -0 -1 1 0 -0 1 0 -2
3 -6 -2 3 -1 -0 -2 1 -1 1 1 1 3 3 5 1 -1 2 0 -2 0 1 -0 -1 -1 1 -1 0 -0 1 -2 1 0 -1 -1 -1 -1 -1 -0 1 -1 -1 1
-0 -0 -4 -5 1 1 -4 1 5 1 1 -0 -3 -1 2 2 -0 2 1 -1 1 -1 -0 3 -0 -2 -1 5 3 -1 0 -2 -0 1 1 -2 3 -3 0 -1 -0 -0 0
-2 -2 0 -3 -4 -7 -5 -1 -1 -4 2 -2 0 -1 0 2 1 -1 -0 -1 -2 0 2 1 4 3 3 -4 1 -1 -0 -1 -1 1 2 -1 1 -1 0 2 -0 -0 -2
-1 3 -1 1 -1 -3 -2 -8 -1 -1 -1 -1 -1 2 4 4 2 0 -0 -1 -1 -2 -1 -1 -2 3 3 3 -1 -2 1 -3 1 -0 4 3 -1 -2 -1 0 -4 1 1
0 -0 1 -1 -0 -1 -1 0 -1 -1 -3 -2 4 -1 -0 -1 -2 0 1 1 1 0 2 -1 -1 -3 -0 -1 1 3 1 -2 3 -2 2 3 -1 1 -6 -1 2 1 -3
-2 0 -0 -0 1 0 -1 -0 -1 1 -1 2 -0 1 1 -3 -2 -1 -1 -1 -1 -2 -0 1 2 1 -1 -0 -0 -3 1 1 -1 -0 -2 -1 1 1 -2 -2 4 -3 0
3 -1 2 0 2 1 1 -0 -0 -3 -3 -1 -1 -1 -2 -1 2 -1 -2 -1 -0 -1 1 1 1 -1 0 1 2 -1 -3 1 1 -0 -1 -0 -0 -1 -1 1 -3 -1 -0
-1 2 1 2 -0 -1 -1 -1 -0 2 -1 -1 -1 -1 -1 0 -2 -1 2 -3 0 -1 -1 1 5 1 1 4 -1 1 2 -1 -1 0 -0 -1 -2 -1 -0 -3 -4 -1 0
-0 -0 1 1 3 1 -0 -1 1 -1 1 1 0 0 2 1 1 2 0 -3 -0 0 -1 -0 -1 -0 -3 -3 -1 -2 -2 1 1 -0 2 1 1 -2 -1 -2 2 -6 -3
2 2 2 0 1 -1 -1 -1 1 1 -2 -0 2 -0 1 5 2 0 -2 -2 -2 0 1 -1 1 2 0 2 -3 -1 -0 -2 -2 2 1 -1 2 1 1 -1 -2 -1 1
2 -1 3 2 0 1 -2 -1 -1 0 0 -2 -2 1 -0 0 0 4 4 2 -0 -1 2 -1 2 0 2 -4 2 -0 -3 -0 -1 -2 -1 -0 -1 -1 2 3 -1 1 -1
1 2 2 -0 -1 2 -1 -0 0 1 -1 1 0 -0 1 1 1 -1 -1 0 1 1 0 -1 0 1 -0 4 0 -1 0 1 -2 -0 -0 -3 -2 -1 0 1 3 -2 2
-0 -2 0 -1 -0 0 -0 1 -1 1 0 0 -1 -2 -1 -1 -1 0 0 1 -1 -2 -3 -3 -4 0 1 1 -0 -1 2 -1 -4 1 -1 1 -3 -1 0 -1 -3 -3 -3
2 2 -0 -1 -2 -1 1 3 2 -1 1 4 -1 -2 -1 -2 -2 -3 -2 -2 -1 -1 -1 -1 -1 -3 -2 -3 -4 -3 -2 -1 -0 1 -2 -1 -1 -1 1 1 -1 -3 -0
-4 -3 -3 -3 -3 -1 -2 -4 -4 -2 -1 -1 -2 1 0 -3 -2 -3 -3 -3 -2 -2 -2 -3 -1 -2 -2 -1 -1 -0 -1 -2 -2 -2 -1 1 3 -1 -3 -0 0 0 -2
-4 -3 -2 -3 -3 -2 -3 -3 -2 -1 -1 -0 -1 3 3 -1 -0 -1 -1 -1 -1 -2 -1 -1 -2 -1 -1 -0 -0 -2 -2 -1 -2 -2 -2 -2 -2 -2 -1 1 -1 2 -2
-2 -2 -2 -2 -2 -1 -0 -1 -1 -1 1 2 1 1 1 -1 1 1 -0 -1 -1 0 -0 -0 -0 -1 -2 -2 -2 -1 -1 -0 -1 -2 -4 -4 -2 -1 -3 -3 -3 -0 -1
-0 -1 1 1 -1 -0 0 1 2 2 2 1 1 2 5 2 0 -1 0 1 0 -1 -1 -1 -2 -1 -3 -1 -1 -3 -3 -4 -6 -5 -3 -2 -2 -2 -5 -3 -4 -3 -2
-0 1 1 0 2 1 -1 0 1 0 0 -1 1 -1 0 1 -1 -1 -1 -0 -0 -1 -2 -2 -2 -4 -4 -2 -4 -6 -4 -2 -4 -4 -6 -5 -3 -0 -3 -6 -7 -5 -4
2 1 2 1 1 -0 2 -1 -1 -1 -1 -1 -0 -0 -1 -1 -1 -1 -1 -1 -1 -1 -2 -3 -3 -2 -2 -2 -4 -5 -7 -8 -11 -13 -13 -13 -10 -7 -10 -9 0 1 3
-1 0 1 -0 1 3 -0 1 -2 -1 -1 -1 -1 -2 -3 -3 -2 -3 -2 -2 -3 -2 -2 -2 -1 -2 -3 -4 -6 -6 -6 -6 -8 -10 -16 -12 -13 -10 -10 -9 -8 -17 -11
Height
5933 5935 5936 5939 5941 5941 5942 5945 5946 5947 5950 5952 5954 5956 5956 5958 5959 5961 5962 5963 5964 5965 5966 5967 5968 5969 5970 5970 5970 5971 5972 5972 5973 5973 5973 5972 5972 5972 5971 5970 5969 5968 5966
5928 5931 5933 5935 5936 5938 5939 5940 5943 5944 5945 5948 5950 5952 5954 5955 5956 5957 5958 5960 5961 5963 5963 5964 5966 5966 5967 5968 5968 5969 5969 5970 5970 5971 5970 5970 5970 5969 5969 5968 5967 5966 5964
5923 5926 5927 5929 5931 5933 5935 5937 5939 5940 5940 5942 5944 5947 5950 5951 5953 5953 5955 5956 5958 5959 5960 5961 5962 5963 5964 5965 5965 5965 5965 5966 5966 5966 5967 5966 5966 5965 5965 5965 5964 5963 5961
5918 5918 5920 5921 5925 5927 5929 5931 5933 5935 5936 5937 5940 5943 5945 5947 5949 5950 5951 5953 5954 5955 5956 5956 5956 5957 5959 5960 5961 5961 5962 5962 5963 5963 5963 5962 5962 5961 5961 5961 5960 5959 5957
5910 5913 5915 5917 5919 5920 5921 5924 5926 5928 5930 5933 5935 5938 5940 5942 5944 5945 5947 5948 5949 5951 5952 5952 5953 5953 5954 5955 5956 5956 5958 5958 5958 5959 5959 5958 5957 5957 5957 5957 5956 5955 5953
5906 5907 5909 5912 5912 5912 5914 5915 5918 5920 5923 5926 5928 5930 5933 5937 5938 5939 5940 5942 5943 5945 5947 5948 5949 5950 5951 5951 5951 5953 5953 5953 5953 5953 5953 5953 5953 5952 5952 5952 5952 5951 5950
5901 5903 5905 5906 5905 5905 5909 5910 5913 5914 5916 5918 5921 5923 5927 5930 5931 5933 5935 5936 5937 5939 5941 5943 5943 5943 5946 5947 5947 5947 5947 5947 5947 5947 5947 5947 5948 5947 5947 5947 5947 5946 5946
5896 5897 5899 5899 5900 5901 5904 5905 5906 5906 5908 5910 5911 5915 5918 5921 5923 5925 5927 5928 5930 5932 5933 5936 5936 5937 5939 5939 5939 5939 5939 5940 5941 5940 5940 5939 5940 5940 5941 5941 5941 5941 5941
5891 5891 5893 5895 5895 5896 5898 5900 5901 5901 5902 5904 5905 5907 5910 5911 5914 5916 5918 5919 5921 5923 5926 5927 5928 5929 5931 5931 5932 5934 5933 5933 5934 5934 5935 5934 5934 5933 5933 5934 5934 5935 5935
5883 5885 5887 5888 5890 5891 5892 5894 5895 5897 5898 5899 5900 5901 5903 5905 5905 5906 5907 5909 5911 5912 5914 5918 5919 5920 5920 5922 5923 5924 5925 5926 5926 5926 5927 5927 5927 5927 5925 5926 5926 5926 5927
5873 5876 5879 5881 5883 5885 5886 5887 5889 5891 5892 5893 5895 5895 5896 5897 5899 5898 5898 5899 5900 5901 5902 5905 5907 5908 5911 5912 5912 5913 5915 5916 5917 5917 5917 5918 5918 5917 5917 5917 5918 5918 5919
5864 5866 5869 5872 5874 5876 5878 5881 5883 5885 5886 5886 5888 5889 5889 5891 5891 5892 5892 5892 5892 5892 5892 5894 5895 5898 5899 5899 5900 5901 5901 5902 5903 5905 5906 5907 5907 5907 5907 5907 5908 5909 5909
5854 5857 5860 5862 5864 5866 5869 5872 5874 5875 5877 5878 5880 5881 5882 5883 5884 5884 5885 5884 5884 5884 5883 5884 5886 5887 5887 5888 5888 5886 5886 5888 5890 5892 5892 5895 5896 5896 5896 5896 5895 5896 5898
5842 5845 5848 5851 5854 5855 5857 5860 5862 5864 5866 5868 5870 5871 5873 5874 5875 5876 5876 5876 5875 5874 5874 5874 5875 5876 5876 5877 5877 5876 5875 5876 5876 5878 5879 5880 5881 5883 5883 5883 5884 5884 5885
5829 5831 5834 5836 5839 5842 5844 5847 5849 5851 5853 5855 5857 5859 5861 5863 5864 5864 5865 5865 5865 5865 5865 5865 5865 5866 5865 5865 5865 5866 5865 5866 5866 5866 5866 5865 5866 5867 5869 5869 5870 5870 5870
5813 5816 5819 5822 5824 5827 5830 5833 5836 5838 5840 5842 5844 5845 5847 5849 5850 5851 5852 5852 5853 5854 5854 5853 5853 5853 5853 5853 5852 5853 5854 5853 5853 5853 5854 5854 5854 5854 5854 5855 5854 5854 5854
5797 5800 5803 5806 5808 5811 5815 5818 5821 5823 5824 5827 5829 5830 5832 5833 5834 5835 5836 5837 5838 5838 5839 5839 5840 5840 5839 5838 5838 5838 5838 5839 5838 5838 5838 5839 5839 5839 5840 5840 5839 5839 5839
5781 5783 5786 5789 5792 5795 5797 5800 5802 5805 5807 5810 5812 5814 5816 5817 5818 5818 5819 5820 5821 5821 5822 5822 5822 5823 5823 5823 5822 5822 5822 5822 5822 5822 5822 5821 5822 5822 5822 5822 5823 5823 5822
5765 5767 5770 5772 5774 5776 5779 5781 5784 5787 5790 5792 5795 5797 5799 5800 5801 5802 5802 5802 5803 5803 5803 5803 5804 5804 5804 5804 5804 5804 5804 5804 5803 5803 5803 5804 5803 5803 5804 5803 5804 5803 5804
5749 5750 5752 5754 5756 5758 5761 5764 5767 5769 5772 5775 5777 5779 5780 5782 5783 5784 5784 5784 5784 5784 5784 5784 5783 5783 5784 5783 5783 5783 5783 5782 5782 5781 5781 5782 5782 5782 5782 5783 5782 5783 5783
5732 5733 5734 5736 5737 5739 5742 5744 5747 5749 5753 5755 5758 5761 5761 5762 5764 5766 5767 5766 5765 5765 5766 5765 5764 5764 5763 5763 5762 5762 5761 5760 5760 5760 5760 5760 5760 5759 5758 5758 5759 5759 5760
5714 5715 5717 5718 5720 5722 5725 5727 5729 5731 5734 5736 5739 5742 5744 5745 5746 5746 5748 5748 5748 5748 5747 5747 5746 5745 5744 5743 5742 5741 5740 5738 5738 5737 5737 5737 5737 5736 5735 5735 5735 5735 5735
5697 5699 5701 5703 5705 5707 5709 5711 5714 5716 5718 5720 5722 5725 5726 5727 5729 5730 5730 5730 5730 5730 5729 5729 5728 5726 5725 5724 5722 5721 5720 5718 5716 5715 5715 5714 5714 5713 5711 5711 5711 5710 5710
5682 5684 5687 5689 5691 5693 5695 5698 5700 5702 5704 5706 5708 5710 5712 5713 5713 5714 5714 5714 5714 5713 5712 5711 5710 5709 5707 5705 5703 5701 5699 5697 5695 5694 5692 5691 5690 5689 5687 5686 5685 5684 5682
5668 5670 5673 5676 5679 5681 5683 5685 5687 5690 5691 5693 5695 5696 5698 5699 5699 5700 5700 5699 5698 5697 5696 5694 5692 5690 5688 5685 5682 5679 5676 5673 5670 5666 5664 5663 5663 5660 5659 5657 5656 5655 5652
5653 5657 5661 5664 5666 5668 5670 5672 5674 5677 5678 5680 5682 5683 5684 5685 5685 5685 5685 5684 5683 5681 5679 5676 5674 5671 5668 5665 5662 5658 5655 5650 5644 5639 5634 5632 5630 5629 5625 5622 5620 5616 5615